Overview Statistics Trail Chart Weather Telemetry Raw packets
 

This is the latest recevied weather packets stored in our database for station/object AI5BL. If no packets are shown the sender has not sent any weather packets the latest 10 day(s).

<< 1 2 3 4 5 >>
Time Temp. Humidity Pressure Rain* Wind** Luminosity Snow
1788652641 28.33° C 85% 1014 hPa 0 mm - 6 W/m² -
1788652336 28.89° C 81% 1013.8 hPa 0 mm - 9 W/m² -
1788652031 28.89° C 82% 1014.2 hPa 0 mm - 11 W/m² -
1788651727 29.44° C 82% 1013.7 hPa 0 mm - 13 W/m² -
1788651422 29.44° C 80% 1013.8 hPa 0 mm - 16 W/m² -
1788651121 29.44° C 79% 1013.8 hPa 0 mm - 16 W/m² -
1788650816 29.44° C 80% 1013.7 hPa 0 mm - 18 W/m² -
1788650512 30° C 77% 1013.6 hPa 0 mm - 21 W/m² -
1788650207 30° C 76% 1013.8 hPa 0 mm - 20 W/m² -
1788649903 30.56° C 76% 1013.6 hPa 0 mm - 22 W/m² -
1788649599 30.56° C 73% 1013.8 hPa 0 mm - 25 W/m² -
1788649297 30.56° C 71% 1013.7 hPa 0 mm - 26 W/m² -
1788648997 31.11° C 76% 1013.7 hPa 0 mm - 27 W/m² -
1788648697 30.56° C 69% 1013.5 hPa 0 mm - 28 W/m² -
1788648396 31.67° C 67% 1013.7 hPa 0 mm - 28 W/m² -
1788648096 31.67° C 69% 1013.6 hPa 0 mm - 28 W/m² -
1788647793 31.67° C 68% 1013.5 hPa 0 mm - 29 W/m² -
1788647489 31.11° C 67% 1013.6 hPa 0 mm - 31 W/m² -
1788647185 31.11° C 67% 1013.6 hPa 0 mm - 38 W/m² -
1788646879 31.67° C 70% 1013.6 hPa 0 mm - 38 W/m² -
1788646575 31.67° C 68% 1013.7 hPa 0 mm - 46 W/m² -
1788646272 31.67° C 65% 1013.7 hPa 0 mm - 62 W/m² -
1788645967 32.22° C 65% 1014 hPa 0 mm - 68 W/m² -
1788645663 32.22° C 64% 1014 hPa 0 mm - 71 W/m² -
1788645362 32.22° C 64% 1013.8 hPa 0 mm - 80 W/m² -

* Rain latest hour (hover to see other rain measurements)
** Current wind speed in m/s (hover to see current wind gust speed)